This demonstration page uses our WeatherBlox Daily Observations layout. Learn more.

Left ArrowRight Arrow

44.31136, -96.79839

Hourly Observations for August 10, 2018

Temp ( °F °C ) Dew Point ( °F °C ) Humidity (%) Winds ( mph kmh ) Pressure ( in mb ) Visibility ( mi km ) Precip ( " mm )
12:33 am 00:33 Clear with Mist and Fog 64 18 64 18 100 100 Calm 30.06 1018 3 4 0.00 0.00
12:49 am 00:49 Clear 64 18 63 17 94 94 Calm 30.06 1018 9 14 0.00 0.00
12:56 am 00:56 Clear 65 18.3 63 17.2 93 93 Calm 30.10 1019 8 13 0.00 0.00
1:44 am 01:44 Clear with Mist and Fog 64 18 64 18 100 100 Calm 30.06 1018 2 3 0.00 0.00
1:52 am 01:52 Clear with Mist and Fog 64 18 63 17 94 94 Calm 30.06 1018 3 5 0.00 0.00
1:56 am 01:56 Clear with Mist and Fog 63 17.2 62 16.7 97 97 Calm 30.09 1019 5 8 0.00 0.00
2:06 am 02:06 Clear with Mist and Fog 63 17 63 17 100 100 Calm 30.06 1018 2 3 0.00 0.00
2:13 am 02:13 Clear with Mist and Fog 63 17 61 16 94 94 Calm 30.06 1018 2 3 0.00 0.00
2:21 am 02:21 Mostly Clear 61 16 61 16 100 100 Calm 30.06 1018 8 13 0.00 0.00
2:56 am 02:56 Clear 62 16.7 61 16.1 96 96 Calm 30.09 1019 7 11 0.00 0.00
3:34 am 03:34 Clear with Mist and Fog 63 17 61 16 94 94 Calm 30.06 1018 2 3 0.00 0.00
3:43 am 03:43 Mostly Clear with Mist and Fog 61 16 61 16 100 100 Calm 30.06 1018 4 6 0.00 0.00
3:56 am 03:56 Clear 61 16.1 60 15.6 97 97 Calm 30.09 1019 9 14 0.00 0.00
4:56 am 04:56 Clear 60 15.6 59 15 96 96 Calm 30.10 1019 10 16 0.00 0.00
5:56 am 05:56 Clear 59 15 58 14.4 96 96 Calm 30.11 1020 10 16 0.00 0.00
6:56 am 06:56 Sunny 59 15 58 14.4 96 96 Calm 30.11 1020 9 14 0.00 0.00
7:56 am 07:56 Sunny 61 16.1 60 15.6 97 97 Calm 30.11 1020 7 11 0.00 0.00
8:56 am 08:56 Sunny 68 20 64 17.8 87 87 Calm 30.12 1020 7 11 0.00 0.00
9:56 am 09:56 Sunny 74 23.3 63 17.2 69 69 Calm 30.11 1020 10 16 0.00 0.00
10:56 am 10:56 Sunny 78 25.6 65 18.3 64 64 SW 6 9 30.10 1019 10 16 0.00 0.00
11:56 am 11:56 Sunny 80 26.7 66 18.9 62 62 VRB 6 9 30.10 1019 10 16 0.00 0.00
12:56 pm 12:56 Sunny 82 27.8 66 18.9 58 58 VRB 5 7 30.08 1019 9 14 0.00 0.00
1:56 pm 13:56 Sunny 83 28.3 67 19.4 59 59 S 12 19 30.07 1018 9 14 0.00 0.00
2:56 pm 14:56 Sunny 84 28.9 68 20 59 59 S 12 19 30.06 1018 9 14 0.00 0.00
3:56 pm 15:56 Sunny 85 29.4 68 20 57 57 SW 9 15 30.05 1018 9 14 0.00 0.00
4:56 pm 16:56 Sunny 85 29.4 65 18.3 51 51 SW 9 15 30.04 1017 8 13 0.00 0.00
5:56 pm 17:56 Sunny 84 28.9 68 20 59 59 SSW 6 9 30.04 1017 8 13 0.00 0.00
6:56 pm 18:56 Sunny 82 27.8 70 21.1 67 67 SSW 7 11 30.04 1017 9 14 0.00 0.00
7:56 pm 19:56 Sunny 79 26.1 69 20.6 72 72 S 6 9 30.03 1017 9 14 0.00 0.00
8:56 pm 20:56 Clear 76 24.4 68 20 77 77 S 7 11 30.03 1017 9 14 0.00 0.00
9:56 pm 21:56 Clear 74 23.3 69 20.6 85 85 SE 7 11 30.04 1017 9 14 0.00 0.00
10:56 pm 22:56 Clear 72 22.2 69 20.6 91 91 ESE 7 11 30.04 1017 8 13 0.00 0.00
11:56 pm 23:56 Clear 70 21.1 68 20 93 93 SE 8 13 30.05 1018 7 11 0.00 0.00

Powered by AerisWeather